[[{"header":{"parameterUnit":"m.s-1","parameterCategory":1,"la1":30.2992,"la2":30.254,"lo1":-89.0895,"lo2":-89.0443,"dy":0.0025,"dx":0.0025,"nx":19,"ny":19,"refTime":"2026-04-30T03:00:00:Z","depth":0,"parameterNumber":2,"parameterNumberName":"U-component_of_WINDS"},"data":[0,0,0,-5.903,-5.9035,-5.926,-5.926,-5.956,-5.9563,0,0,0,0,0,0,0,0,0,0,0,-5.8972,-5.8974,-5.9029,-5.9035,-5.9259,-5.926,-5.956,-5.9563,0,0,0,0,0,0,0,0,0,0,0,-5.8971,-5.8974,-5.8976,-5.9036,-5.9259,-5.926,-5.9559,-5.9385,0,0,0,0,0,0,0,0,0,0,-5.9165,-5.912,-5.8973,-5.8977,-5.9038,-5.9259,-5.9261,-5.9376,-5.9396,-5.9464,0,-5.9528,0,-5.955,-5.9584,-5.9585,0,0,0,-5.9029,-5.9103,-5.9156,-5.8977,-5.904,-5.9259,-5.9156,-5.9387,-5.9409,-5.949,-5.9532,-5.9543,-5.9555,-5.9586,-5.9587,-6.0005,-6.0008,0,0,-5.9016,-5.9017,-5.9141,-5.9171,-5.9138,-5.9149,-5.9164,-5.94,-5.9446,-5.9533,-5.9549,-5.956,-5.9588,-5.959,-6.0003,-6.0006,0,0,0,-5.8985,-5.9008,-5.9055,-5.9159,-5.9199,-5.9156,-5.9172,-5.9435,-5.945,-5.9553,-5.9564,-5.959,-5.9594,-6.0001,-6.0004,-6.0118,0,0,0,-5.8977,-5.899,-5.905,-5.9052,-5.9195,-5.932,-5.9202,-5.9434,-5.9461,-5.9562,-5.959,-5.9597,-5.9998,-6.0003,-6.0109,-6.0172,0,0,0,-5.8954,-5.8987,-5.9023,-5.9052,-5.9148,-5.9316,-5.9345,-5.944,-5.9468,-5.9585,-5.9597,-5.9997,-6.0002,-6.0102,-6.0159,-6.0283,0,0,0,-5.8929,-5.9119,-5.9024,-5.924,-5.9147,-5.9384,-5.9343,-5.952,-5.9634,-5.9591,-5.9999,-6.0004,-6.0099,-6.0152,-6.0275,-6.0389,-6.0436,0,0,-5.9169,-5.9148,-5.9275,-5.9197,-5.9451,-5.935,-5.9621,-5.9724,-5.9734,-5.9914,-5.9925,-6.0112,-6.0158,-6.0281,-6.0695,-6.0733,0,0,0,-5.9351,-5.9442,-5.951,-5.9619,-5.9703,-5.978,-5.9842,-5.9881,-6.0034,-5.9827,-6.0189,-6.0217,-6.0289,-6.0343,-6.0375,-6.0438,-6.0029,-6.0028,-6.0027,-5.9691,-5.9695,-5.9905,-5.9937,-6.0042,-6.0105,-6.0191,-6.0253,-6.0225,-6.031,-6.0365,-6.0616,-6.0679,-6.0703,-6.0768,-6.0423,-6.0424,-6.0424,-6.0424,-6.0044,-6.0175,-6.0133,-6.0323,-6.0325,-6.0484,-6.0551,-6.0526,-6.0675,-6.0575,-6.0639,-6.0531,-6.0744,-6.0801,-6.0433,-6.0431,-6.043,-6.043,-6.0429,-6.0269,-6.0332,-6.0376,-6.0534,-6.0656,-6.0679,-6.0825,-6.082,-6.0818,-6.0881,-6.0938,-6.0937,-6.0936,-6.0908,-6.0909,-6.091,-6.0911,-6.0911,-6.0912,-6.0486,-6.0531,-6.0655,-6.076,-6.083,-6.0921,-6.0985,-6.1054,-6.1128,-6.1114,-6.1115,-6.1079,-6.0763,-6.0686,-6.0925,-6.0923,-6.0921,-6.092,-6.0919,-6.0846,-6.0764,-6.0955,-6.1025,-6.1148,-6.127,-6.1262,-6.1402,-6.1458,-6.153,-6.148,-6.1247,-6.1225,-6.12,-6.1135,-6.1477,-6.1477,-6.1477,-6.1477,-6.1038,-6.1026,-6.1221,-6.1333,-6.1442,-6.1455,-6.167,-6.1722,-6.1762,-6.1796,-6.1746,-6.1659,-6.1633,-6.1627,-6.1593,-6.1533,-6.1968,-6.1968,-6.1969,-6.1261,-6.1259,-6.1444,-6.1483,-6.1579,-6.1661,-6.1864,-6.1994,-6.2022,-6.1989,-6.1824,-6.1803,-6.1663,-6.1617,-6.1583,-6.1529,-6.1419,0,0]},{"header":{"parameterUnit":"m.s-1","parameterCategory":1,"la1":30.2992,"la2":30.254,"lo1":-89.0895,"lo2":-89.0443,"dy":0.0025,"dx":0.0025,"nx":19,"ny":19,"refTime":"2026-04-30T03:00:00:Z","depth":0,"parameterNumber":3,"parameterNumberName":"V-component_of_WINDS"},"data":[0,0,0,-4.5598,-4.56,-4.5683,-4.5683,-4.5793,-4.5794,0,0,0,0,0,0,0,0,0,0,0,-4.5579,-4.558,-4.5598,-4.56,-4.5682,-4.5683,-4.5793,-4.5794,0,0,0,0,0,0,0,0,0,0,0,-4.5579,-4.558,-4.5581,-4.56,-4.5682,-4.5683,-4.5793,-4.5728,0,0,0,0,0,0,0,0,0,0,-4.5647,-4.5636,-4.558,-4.5581,-4.5601,-4.5682,-4.5683,-4.5725,-4.5732,-4.5758,0,-4.5786,0,-4.5792,-4.5802,-4.5802,0,0,0,-4.5595,-4.563,-4.5647,-4.5581,-4.5602,-4.5682,-4.5644,-4.5729,-4.5737,-4.5768,-4.5787,-4.5791,-4.5794,-4.5803,-4.5803,-4.5976,-4.5977,0,0,-4.5591,-4.5596,-4.5641,-4.5653,-4.5643,-4.5641,-4.5647,-4.5734,-4.5754,-4.5788,-4.5793,-4.5795,-4.5803,-4.5804,-4.5975,-4.5976,0,0,0,-4.5581,-4.5594,-4.5609,-4.5648,-4.5663,-4.5644,-4.565,-4.575,-4.5755,-4.5795,-4.5797,-4.5804,-4.5806,-4.5974,-4.5975,-4.6032,0,0,0,-4.5578,-4.5588,-4.5607,-4.5611,-4.5662,-4.5708,-4.5665,-4.5749,-4.5758,-4.5796,-4.5804,-4.5807,-4.5973,-4.5975,-4.6028,-4.6058,0,0,0,-4.5572,-4.5587,-4.5601,-4.5611,-4.5647,-4.5707,-4.5716,-4.575,-4.576,-4.5802,-4.5807,-4.5972,-4.5974,-4.6025,-4.6052,-4.6105,0,0,0,-4.5566,-4.565,-4.5602,-4.5696,-4.5647,-4.5742,-4.5715,-4.5786,-4.5829,-4.5805,-4.5973,-4.5975,-4.6024,-4.6049,-4.6101,-4.6151,-4.6172,0,0,-4.5675,-4.5664,-4.5718,-4.5677,-4.5783,-4.5729,-4.5841,-4.5875,-4.5873,-4.5941,-4.5945,-4.603,-4.6052,-4.6104,-4.6288,-4.6305,0,0,0,-4.5754,-4.5794,-4.582,-4.5863,-4.5891,-4.5917,-4.5933,-4.5945,-4.6003,-4.591,-4.6063,-4.6076,-4.6106,-4.6129,-4.6144,-4.6169,-4.5986,-4.5986,-4.5986,-4.5917,-4.591,-4.6,-4.6003,-4.6044,-4.6059,-4.609,-4.6108,-4.6089,-4.6125,-4.6146,-4.6259,-4.6286,-4.6297,-4.6323,-4.6171,-4.6171,-4.6172,-4.6172,-4.6076,-4.613,-4.6102,-4.6179,-4.617,-4.6234,-4.625,-4.6234,-4.629,-4.6243,-4.6269,-4.6219,-4.6316,-4.6338,-4.6176,-4.6175,-4.6175,-4.6174,-4.6174,-4.6182,-4.6207,-4.622,-4.628,-4.6325,-4.6324,-4.6379,-4.6369,-4.6359,-4.6385,-4.6405,-4.6404,-4.6401,-4.6395,-4.6396,-4.6396,-4.6397,-4.6397,-4.6397,-4.6287,-4.63,-4.6349,-4.6385,-4.641,-4.6441,-4.6455,-4.6478,-4.6501,-4.6489,-4.6489,-4.6465,-4.6327,-4.6292,-4.6403,-4.6402,-4.6401,-4.6401,-4.64,-4.6451,-4.6412,-4.6488,-4.6513,-4.6552,-4.6597,-4.6583,-4.6631,-4.6648,-4.6675,-4.6646,-4.6545,-4.6532,-4.652,-4.6492,-4.6648,-4.6648,-4.6648,-4.6648,-4.654,-4.6532,-4.6607,-4.6647,-4.6685,-4.6679,-4.6762,-4.6772,-4.6777,-4.6786,-4.6762,-4.6723,-4.6712,-4.6705,-4.6689,-4.6662,-4.6858,-4.6858,-4.6859,-4.664,-4.6635,-4.671,-4.6715,-4.6744,-4.6769,-4.6847,-4.6891,-4.6888,-4.6867,-4.6793,-4.6785,-4.6721,-4.6701,-4.668,-4.6656,-4.6606,0,0]}]]